Tracking 30995 objects as of 5-Jul-2025
HD Live streaming from Space Station
objects crossing your sky now

FLOCK 4Q 26

Track FLOCK 4Q 26 now!
10-day predictions
FLOCK 4Q 26 is classified as:


NORAD ID: 58284
Int'l Code: 2023-174AE
Perigee: 458.5 km
Apogee: 467.9 km
Inclination: 97.4 °
Period: 93.7 minutes
Semi major axis: 6834 km
RCS: Unknown
Launch date: November 11, 2023
Source: United States (US)
Launch site: AIR FORCE WESTERN TEST RANGE (AFWTR)
Your satellite tracking list
Your tracking list is empty




NASA's NSSDC Master Catalog

Two Line Element Set (TLE):
1 58284U 23174AE  25186.16337686  .00011809  00000-0  33212-3 0  9999
2 58284  97.4178 266.4731 0006858 330.1386  29.9465 15.36629506 92217
Source of the keplerian elements: AFSPC